EW7535 Weather Reports


Display with metric or nautical units.
time (UTC)temp
F
wind
direction
speed
MPH
gust
MPH
rain 1hr
in
rain 24hr
in
rain mn
in
humidity
%
barometer
mb
20260504234540 71 263 4.0 9.0 0.00 0.00 0.00 36 1008.2
20260504233041 72 297 4.0 14.0 0.00 0.00 0.00 36 1008.9
20260504231535 74 290 11.0 18.0 0.00 0.00 0.00 31 1008.9
20260504230033 75 250 5.0 18.0 0.00 0.00 0.00 28 1008.6
20260504224536 76 304 16.0 22.0 0.00 0.00 0.00 26 1008.1
20260504223033 78 257 10.0 25.0 0.00 0.00 0.00 23 1007.9
20260504221529 78 274 10.0 17.0 0.00 0.00 0.00 22 1007.8
20260504220029 79 297 10.0 21.0 0.00 0.00 0.00 21 1008.1
20260504214539 81 288 7.0 15.0 0.00 0.00 0.00 20 1008.0
20260504213029 80 308 7.0 15.0 0.00 0.00 0.00 20 1007.8
20260504211601 81 292 8.0 17.0 0.00 0.00 0.00 22 1007.7
20260504204525 81 259 7.0 15.0 0.00 0.00 0.00 18 1007.9
20260504203025 81 255 0.0 12.0 0.00 0.00 0.00 19 1008.0
20260504201523 83 273 2.0 6.0 0.00 0.00 0.00 18 1008.1
20260504200022 82 252 3.0 11.0 0.00 0.00 0.00 19 1008.3
20260504194521 82 80 0.0 3.0 0.00 0.00 0.00 20 1008.2
20260504193019 83 223 0.0 3.0 0.00 0.00 0.00 22 1008.1
20260504191515 83 90 1.0 4.0 0.00 0.00 0.00 23 1008.2
20260504190014 81 136 2.0 7.0 0.00 0.00 0.00 23 1008.1
20260504184515 82 173 0.0 6.0 0.00 0.00 0.00 25 1008.5
20260504183017 80 91 2.0 8.0 0.00 0.00 0.00 25 1008.8
20260504181604 81 264 1.0 8.0 0.00 0.00 0.00 25 1009.0
20260504180100 79 98 1.0 6.0 0.00 0.00 0.00 24 1009.0
20260504174559 78 190 1.0 5.0 0.00 0.00 0.00 27 1009.1
20260504173057 78 217 2.0 6.0 0.00 0.00 0.00 27 1009.1
20260504171559 77 97 2.0 11.0 0.00 0.00 0.00 26 1009.3
20260504160104 78 168 2.0 7.0 0.00 0.00 0.00 30 1009.4
20260504120130 69 127 0.0 0.0 0.00 0.00 0.00 37 1007.7
20260504081508 70 116 0.0 0.0 0.00 0.00 0.00 35 1007.3
20260504044547 74 104 0.0 0.0 0.00 0.00 0.00 28 1008.0
20260504043104 74 292 0.0 0.0 0.00 0.00 0.00 28 1008.0
20260504041541 75 249 0.0 0.0 0.00 0.00 0.00 26 1007.9
20260504040042 76 287 0.0 0.0 0.00 0.00 0.00 25 1007.6
20260504034547 77 257 0.0 5.0 0.00 0.00 0.00 23 1007.2
20260504033038 77 264 0.0 5.0 0.00 0.00 0.00 22 1006.9
20260504031548 78 253 1.0 7.0 0.00 0.00 0.00 21 1006.7
20260504030046 78 255 0.0 4.0 0.00 0.00 0.00 20 1006.1
20260504024539 79 255 0.0 6.0 0.00 0.00 0.00 19 1005.7
20260504023008 80 187 0.0 8.0 0.00 0.00 0.00 18 1005.4
20260504021509 81 258 0.0 4.0 0.00 0.00 0.00 16 1005.0
20260504020001 82 259 0.0 4.0 0.00 0.00 0.00 15 1004.9
20260504014608 83 256 1.0 8.0 0.00 0.00 0.00 14 1004.7
20260504014502 83 248 2.0 8.0 0.00 0.00 0.00 14 1004.7
20260504013100 85 264 4.0 9.0 0.00 0.00 0.00 13 1004.5
20260504011559 89 254 0.0 5.0 0.00 0.00 0.00 12 1004.4
20260504010027 89 272 1.0 6.0 0.00 0.00 0.00 11 1004.6
20260504004539 89 224 1.0 7.0 0.00 0.00 0.00 11 1004.7
20260504003023 90 230 1.0 8.0 0.00 0.00 0.00 11 1004.7
20260504001531 92 267 1.0 6.0 0.00 0.00 0.00 12 1004.6
20260504000022 93 243 0.0 11.0 0.00 0.00 0.00 11 1004.4